Total_Precipitation_Accumulation
0.00 0.00 0.01 0.01 0.01 0.02 0.03 0.06 0.13 0.21 0.16 0.24 0.32 0.42 0.56 0.71 0.93 0.95 1.00 1.07 1.24 1.55 1.95 2.51 3.07 3.55 4.13 4.76 5.18 5.00 4.27 3.57 2.88 2.35 1.85 1.63 1.48 1.28 1.08 0.99 0.86 0.77 0.68 0.62
0.01 0.03 0.03 0.02 0.02 0.03 0.04 0.07 0.13 0.17 0.14 0.14 0.25 0.50 0.64 0.73 0.88 0.83 0.83 0.77 0.93 1.33 1.91 2.57 3.12 3.34 3.25 3.36 3.44 2.94 2.59 2.24 1.80 1.56 1.30 1.07 0.97 0.82 0.68 0.62 0.57 0.47 0.46 0.48
0.02 0.04 0.03 0.02 0.03 0.04 0.07 0.09 0.09 0.15 0.16 0.21 0.35 0.66 0.84 0.76 0.72 0.62 0.62 0.73 1.19 1.60 1.98 2.43 2.57 2.55 2.44 2.33 2.16 1.80 1.58 1.58 1.39 1.26 1.09 0.88 0.80 0.71 0.59 0.49 0.46 0.39 0.33 0.33
0.01 0.03 0.03 0.04 0.04 0.04 0.07 0.06 0.04 0.04 0.12 0.34 0.50 0.89 1.03 0.90 0.80 0.55 0.56 0.88 1.41 1.71 1.96 1.90 1.50 1.32 1.46 1.51 1.45 1.49 1.45 1.35 1.19 1.15 0.90 0.66 0.52 0.47 0.41 0.39 0.37 0.36 0.30 0.26
0.03 0.03 0.03 0.04 0.04 0.03 0.04 0.04 0.03 0.05 0.15 0.39 0.65 1.05 1.22 0.96 0.76 0.52 0.42 0.52 0.89 1.13 1.03 0.79 0.65 0.67 0.87 1.07 1.23 1.46 1.46 1.27 1.08 1.01 0.92 0.86 0.73 0.64 0.53 0.47 0.45 0.40 0.37 0.31
0.04 0.04 0.04 0.03 0.03 0.03 0.03 0.04 0.10 0.20 0.37 0.82 0.86 0.94 1.15 0.95 0.73 0.53 0.34 0.37 0.61 0.64 0.45 0.43 0.48 0.61 0.77 0.91 1.00 1.13 1.19 1.25 1.19 1.12 1.00 0.98 0.90 0.80 0.68 0.56 0.47 0.43 0.39 0.38
0.09 0.08 0.06 0.04 0.03 0.04 0.03 0.05 0.25 0.60 0.89 1.00 0.71 0.85 1.14 0.75 0.48 0.35 0.23 0.20 0.22 0.24 0.29 0.41 0.44 0.53 0.56 0.66 0.69 0.74 0.77 0.88 0.94 0.97 0.95 0.95 0.91 0.83 0.72 0.59 0.47 0.44 0.37 0.34
0.14 0.14 0.08 0.04 0.05 0.05 0.04 0.03 0.10 0.21 0.31 0.49 0.64 1.04 1.10 0.68 0.33 0.18 0.11 0.08 0.09 0.11 0.13 0.15 0.20 0.24 0.30 0.41 0.50 0.53 0.57 0.58 0.57 0.57 0.62 0.67 0.68 0.65 0.63 0.63 0.48 0.41 0.41 0.38
0.04 0.04 0.04 0.04 0.05 0.03 0.03 0.03 0.04 0.05 0.08 0.30 0.71 0.97 0.83 0.47 0.27 0.17 0.12 0.08 0.06 0.06 0.05 0.06 0.09 0.14 0.21 0.25 0.33 0.42 0.43 0.43 0.43 0.44 0.45 0.43 0.46 0.50 0.51 0.49 0.41 0.35 0.38 0.37
0.02 0.02 0.03 0.03 0.03 0.04 0.04 0.03 0.03 0.05 0.10 0.23 0.53 0.97 1.07 0.66 0.37 0.22 0.16 0.11 0.07 0.07 0.05 0.04 0.06 0.09 0.14 0.17 0.26 0.34 0.35 0.33 0.37 0.41 0.41 0.34 0.38 0.42 0.41 0.36 0.36 0.34 0.32 0.32
0.02 0.01 0.02 0.03 0.04 0.06 0.05 0.04 0.05 0.06 0.07 0.15 0.38 0.60 0.55 0.50 0.35 0.23 0.17 0.10 0.07 0.07 0.07 0.05 0.05 0.07 0.09 0.14 0.19 0.24 0.28 0.28 0.29 0.31 0.34 0.34 0.35 0.38 0.37 0.35 0.37 0.37 0.35 0.33
0.02 0.01 0.02 0.04 0.06 0.06 0.07 0.07 0.07 0.08 0.08 0.10 0.19 0.30 0.30 0.29 0.33 0.33 0.20 0.12 0.10 0.13 0.11 0.07 0.07 0.10 0.08 0.11 0.16 0.20 0.20 0.22 0.23 0.25 0.30 0.29 0.31 0.33 0.35 0.33 0.34 0.37 0.40 0.40
0.02 0.01 0.03 0.10 0.15 0.14 0.10 0.09 0.08 0.08 0.08 0.08 0.18 0.30 0.28 0.20 0.21 0.23 0.19 0.23 0.18 0.17 0.16 0.11 0.09 0.11 0.10 0.10 0.13 0.17 0.19 0.22 0.21 0.24 0.28 0.30 0.30 0.31 0.35 0.36 0.33 0.32 0.33 0.41
0.02 0.02 0.02 0.08 0.16 0.20 0.18 0.14 0.10 0.06 0.05 0.06 0.09 0.20 0.18 0.23 0.28 0.23 0.21 0.25 0.22 0.12 0.11 0.10 0.10 0.11 0.15 0.15 0.17 0.20 0.24 0.25 0.24 0.26 0.30 0.32 0.32 0.34 0.36 0.38 0.41 0.41 0.39 0.43
0.02 0.02 0.02 0.02 0.05 0.11 0.17 0.16 0.11 0.06 0.04 0.06 0.06 0.10 0.11 0.15 0.22 0.27 0.25 0.24 0.24 0.18 0.16 0.15 0.16 0.15 0.15 0.18 0.24 0.30 0.37 0.36 0.39 0.45 0.50 0.53 0.50 0.50 0.52 0.54 0.52 0.55 0.55 0.54
0.04 0.04 0.03 0.03 0.05 0.07 0.10 0.13 0.09 0.06 0.05 0.05 0.06 0.09 0.12 0.20 0.27 0.28 0.24 0.23 0.24 0.25 0.21 0.20 0.20 0.20 0.18 0.21 0.28 0.35 0.42 0.46 0.57 0.75 0.85 0.85 0.85 0.85 0.82 0.80 0.74 0.76 0.81 0.87
0.11 0.09 0.07 0.05 0.07 0.08 0.13 0.11 0.10 0.08 0.07 0.07 0.09 0.14 0.18 0.29 0.41 0.41 0.34 0.28 0.27 0.26 0.28 0.26 0.27 0.31 0.30 0.32 0.33 0.36 0.41 0.51 0.65 0.77 0.85 0.92 0.92 0.93 0.99 1.01 1.00 0.98 1.01 1.01
0.19 0.19 0.15 0.10 0.10 0.17 0.15 0.12 0.13 0.11 0.12 0.14 0.21 0.27 0.29 0.29 0.31 0.33 0.30 0.31 0.31 0.32 0.35 0.37 0.35 0.35 0.40 0.43 0.43 0.48 0.60 0.69 0.77 0.85 0.89 0.96 1.01 1.05 1.08 1.05 1.00 0.93 0.91 0.88
0.24 0.27 0.24 0.21 0.19 0.18 0.16 0.18 0.20 0.19 0.22 0.25 0.34 0.44 0.47 0.42 0.42 0.45 0.39 0.38 0.36 0.37 0.39 0.40 0.44 0.46 0.51 0.59 0.60 0.60 0.68 0.80 0.89 0.92 0.98 1.05 1.11 1.14 1.05 0.94 0.92 0.85 0.81 0.74
0.29 0.32 0.38 0.32 0.34 0.33 0.24 0.28 0.27 0.29 0.43 0.40 0.46 0.56 0.63 0.63 0.72 0.74 0.56 0.47 0.42 0.39 0.41 0.44 0.51 0.55 0.58 0.66 0.70 0.70 0.72 0.78 0.83 0.85 0.89 0.92 0.96 1.04 1.06 0.95 0.91 0.88 0.88 0.83
0.41 0.44 0.41 0.41 0.42 0.37 0.34 0.31 0.32 0.55 0.69 0.63 0.61 0.59 0.66 0.73 0.68 0.62 0.50 0.47 0.44 0.39 0.38 0.40 0.43 0.51 0.54 0.57 0.61 0.65 0.65 0.65 0.66 0.64 0.63 0.68 0.75 0.81 0.83 0.85 0.86 0.90 0.90 0.87
0.56 0.60 0.57 0.53 0.65 0.69 0.50 0.41 0.53 0.71 0.68 0.69 0.64 0.56 0.58 0.65 0.65 0.61 0.52 0.47 0.42 0.34 0.33 0.35 0.38 0.44 0.50 0.55 0.62 0.67 0.63 0.60 0.59 0.61 0.64 0.67 0.70 0.67 0.63 0.70 0.75 0.80 0.83 0.79
0.71 0.75 0.74 0.73 0.82 0.74 0.57 0.56 0.59 0.58 0.62 0.58 0.58 0.60 0.57 0.57 0.58 0.53 0.44 0.40 0.39 0.32 0.29 0.26 0.27 0.33 0.42 0.54 0.63 0.67 0.64 0.68 0.69 0.65 0.66 0.68 0.66 0.62 0.61 0.60 0.60 0.60 0.61 0.57
0.73 0.62 0.72 0.83 0.89 0.78 0.65 0.58 0.54 0.53 0.53 0.53 0.54 0.59 0.61 0.56 0.53 0.50 0.44 0.35 0.31 0.27 0.23 0.21 0.23 0.26 0.31 0.36 0.43 0.50 0.52 0.57 0.63 0.62 0.55 0.49 0.48 0.48 0.53 0.58 0.57 0.56 0.54 0.47
0.69 0.66 0.73 0.89 1.03 0.97 0.81 0.65 0.58 0.63 0.65 0.62 0.62 0.58 0.56 0.57 0.60 0.62 0.54 0.39 0.27 0.25 0.24 0.24 0.26 0.28 0.29 0.29 0.32 0.37 0.44 0.52 0.59 0.60 0.55 0.51 0.49 0.50 0.51 0.53 0.52 0.46 0.45 0.37
0.54 0.60 0.71 0.90 0.94 1.01 0.94 0.75 0.71 0.77 0.81 0.76 0.70 0.65 0.60 0.62 0.60 0.51 0.44 0.35 0.28 0.26 0.29 0.31 0.32 0.32 0.30 0.31 0.33 0.35 0.43 0.51 0.60 0.60 0.52 0.48 0.46 0.49 0.51 0.50 0.49 0.41 0.31 0.26